Regional Weather Roundup
Issued by NWS

Home | Current Version | Previous Version | Text Only | Print | Product List | Glossary Off
Versions: 1 2 3 4 5 6 7 8 9 10 11 12 13 14 15 16 17 18 19 20 21 22 23 24 25 26 27 28 29 30 31 32 33 34 35 36 37 38 39 40 41 42 43 44 45 46 47 48 49 50

000
ASUS43 KLMK 060802
RWRKY
KENTUCKY REGIONAL WEATHER ROUNDUP
NATIONAL WEATHER SERVICE LOUISVILLE KY
300 AM EST FRI MAR 06 2015

NOTE "FAIR" INDICATES FEW OR NO CLOUDS BELOW 12,000 FEET
WITH NO SIGNIFICANT WEATHER AND/OR OBSTRUCTIONS TO VISIBILITY.

KYZ001>023-026-027-061>063-070>075-060900-
WESTERN AND SOUTH CENTRAL KENTUCKY

CITY           SKY/WX    TMP DP  RH WIND       PRES   REMARKS
PADUCAH        PTCLDY     5  -1  76 CALM      30.59S
HENDERSON      PTCLDY    -6 -15  65 CALM      30.61R
OWENSBORO      CLEAR      5   1  83 CALM      30.60S
HOPKINSVILLE   PTCLDY     4   0  83 W2        30.57S
BOWLING GREEN  PTCLDY     7   1  76 CALM      30.57R
GLASGOW        NOT AVBL
$$

KYZ024-025-028>034-038-045-046-053-060900-
NORTH CENTRAL KENTUCKY

CITY           SKY/WX    TMP DP  RH WIND       PRES   REMARKS
LOUISVILLE/SDF PTCLDY    14   8  77 N3        30.56F
LOUISVILLE/LOU PTCLDY    10   5  80 CALM      30.57S
FORT KNOX      MOCLDY     4   0  83 NE2       30.52F
$$

KYZ035>037-039>044-047>052-055>060-089>105-060900-
NORTHEAST KENTUCKY

CITY           SKY/WX    TMP DP  RH WIND       PRES   REMARKS
LEXINGTON      PTCLDY     2  -1  88 NE5       30.52S WCI  -8
COVINGTON      PTCLDY     4   1  88 CALM      30.53S
FRANKFORT      PTCLDY    -5 -10  79 CALM      30.53F
$$

KYZ054-064>069-076>088-106>120-060900-
SOUTHEAST KENTUCKY

CITY           SKY/WX    TMP DP  RH WIND       PRES   REMARKS
JACKSON        MOCLDY    11   6  81 CALM      30.46S
LONDON         PTCLDY     6   0  76 N3        30.48S
SOMERSET       NOT AVBL
MIDDLESBORO    NOT AVBL
MONTICELLO     SNOW      -6 -10  83 CALM      30.54S VSB<1/4
$$




USA.gov is the U.S. government's official web portal to all federal, state and local government web resources and services.